| time (UTC) | temp F | wind direction | speed knots | gust knots | rain 1hr in | rain 24hr in | rain mn in | humidity % | barometer mb |
| 20260507051558 | 49 | 5 | 0.9 | 2.6 | 0.00 | 0.56 | 0.17 | 97 | 1010.1 |
| 20260507050133 | 48 | 350 | 0.0 | 1.7 | 0.00 | 0.56 | 0.17 | 96 | 1009.9 |
| 20260507044558 | 47 | 350 | 1.7 | 3.5 | 0.00 | 0.56 | 0.17 | 96 | 1009.8 |
| 20260507043129 | 47 | 333 | 1.7 | 2.6 | 0.00 | 0.56 | 0.17 | 95 | 1009.6 |
| 20260507041608 | 48 | 324 | 0.0 | 3.5 | 0.00 | 0.56 | 0.17 | 95 | 1009.3 |
| 20260507040136 | 48 | 317 | 1.7 | 3.5 | 0.03 | 0.56 | 0.17 | 95 | 1009.2 |
| 20260507034659 | 49 | 330 | 0.9 | 2.6 | 0.05 | 0.59 | 0.17 | 95 | 1009.1 |
| 20260507033123 | 49 | 5 | 0.0 | 1.7 | 0.06 | 0.59 | 0.17 | 96 | 1009.1 |
| 20260507031604 | 49 | 5 | 0.0 | 0.9 | 0.08 | 0.59 | 0.17 | 95 | 1009.1 |
| 20260507030138 | 50 | 5 | 0.0 | 1.7 | 0.06 | 0.56 | 0.14 | 95 | 1009.1 |
| 20260507024607 | 50 | 5 | 0.9 | 2.6 | 0.05 | 0.54 | 0.12 | 96 | 1009.1 |
| 20260507023122 | 51 | 5 | 0.9 | 3.5 | 0.05 | 0.54 | 0.11 | 96 | 1009.2 |
| 20260507021559 | 51 | 289 | 0.9 | 2.6 | 0.05 | 0.52 | 0.09 | 96 | 1009.1 |
| 20260507020002 | 51 | 290 | 0.0 | 1.7 | 0.05 | 0.51 | 0.09 | 96 | 1009.1 |
| 20260507014608 | 50 | 290 | 0.9 | 2.6 | 0.04 | 0.51 | 0.07 | 96 | 1009.2 |
| 20260507013136 | 50 | 313 | 0.0 | 1.7 | 0.04 | 0.50 | 0.06 | 96 | 1009.1 |
| 20260507011558 | 50 | 313 | 0.0 | 0.0 | 0.03 | 0.49 | 0.05 | 96 | 1009.1 |
| 20260507010127 | 50 | 329 | 0.0 | 1.7 | 0.02 | 0.48 | 0.04 | 96 | 1009.0 |
| 20260507004558 | 50 | 293 | 1.7 | 2.6 | 0.02 | 0.49 | 0.03 | 96 | 1008.9 |
| 20260507003121 | 49 | 57 | 0.0 | 2.6 | 0.02 | 0.48 | 0.02 | 95 | 1008.8 |
| 20260507001620 | 49 | 297 | 2.6 | 4.3 | 0.01 | 0.47 | 0.02 | 94 | 1008.5 |
| 20260506234558 | 50 | 328 | 0.9 | 2.6 | 0.02 | 0.48 | 0.02 | 92 | 1008.4 |
| 20260506233126 | 50 | 321 | 0.0 | 1.7 | 0.02 | 0.47 | 0.01 | 92 | 1008.4 |
| 20260506231558 | 51 | 318 | 0.9 | 3.5 | 0.02 | 0.47 | 0.01 | 92 | 1008.4 |
| 20260506230002 | 52 | 346 | 1.7 | 3.5 | 0.02 | 0.46 | 0.00 | 92 | 1008.4 |
| 20260506224557 | 52 | 321 | 1.7 | 2.6 | 0.01 | 0.46 | 0.46 | 93 | 1008.3 |
| 20260506223136 | 52 | 340 | 0.9 | 5.2 | 0.01 | 0.46 | 0.46 | 93 | 1008.4 |
| 20260506221603 | 52 | 300 | 0.9 | 2.6 | 0.01 | 0.46 | 0.46 | 92 | 1008.4 |
| 20260506220152 | 53 | 5 | 1.7 | 2.6 | 0.00 | 0.45 | 0.45 | 91 | 1008.4 |
| 20260506214609 | 53 | 5 | 0.0 | 1.7 | 0.00 | 0.45 | 0.45 | 92 | 1008.3 |
| 20260506213146 | 54 | 355 | 0.9 | 3.5 | 0.00 | 0.45 | 0.45 | 92 | 1008.4 |
| 20260506211559 | 54 | 275 | 0.0 | 2.6 | 0.00 | 0.45 | 0.45 | 91 | 1008.2 |
| 20260506210138 | 54 | 269 | 0.0 | 0.0 | 0.00 | 0.45 | 0.45 | 90 | 1008.2 |
| 20260506204558 | 54 | 268 | 1.7 | 2.6 | 0.00 | 0.45 | 0.45 | 89 | 1008.1 |
| 20260506201558 | 56 | 311 | 0.0 | 3.5 | 0.00 | 0.45 | 0.45 | 86 | 1007.6 |
| 20260506200152 | 57 | 290 | 0.9 | 2.6 | 0.00 | 0.45 | 0.45 | 83 | 1007.4 |
| 20260506194612 | 57 | 47 | 0.0 | 4.3 | 0.00 | 0.45 | 0.45 | 81 | 1007.1 |
| 20260506191600 | 56 | 38 | 1.7 | 4.3 | 0.00 | 0.45 | 0.45 | 84 | 1006.6 |
| 20260506190124 | 56 | 78 | 0.0 | 0.9 | 0.00 | 0.45 | 0.45 | 84 | 1006.3 |
| 20260506184557 | 57 | 78 | 0.0 | 1.7 | 0.00 | 0.45 | 0.45 | 81 | 1006.0 |
| 20260506183133 | 58 | 78 | 0.0 | 0.9 | 0.00 | 0.45 | 0.45 | 79 | 1005.7 |
| 20260506181557 | 59 | 78 | 2.6 | 6.1 | 0.00 | 0.45 | 0.45 | 76 | 1005.4 |
| 20260506180140 | 60 | 34 | 0.9 | 7.0 | 0.00 | 0.45 | 0.45 | 74 | 1005.2 |
| 20260506174601 | 62 | 115 | 2.6 | 10.4 | 0.00 | 0.45 | 0.45 | 71 | 1004.9 |
| 20260506173132 | 63 | 136 | 2.6 | 7.8 | 0.00 | 0.45 | 0.45 | 67 | 1004.5 |
| 20260506171602 | 64 | 116 | 2.6 | 7.0 | 0.00 | 0.45 | 0.45 | 66 | 1004.3 |
| 20260506170135 | 65 | 93 | 4.3 | 7.0 | 0.00 | 0.45 | 0.45 | 65 | 1004.0 |
| 20260506164559 | 66 | 121 | 1.7 | 5.2 | 0.00 | 0.45 | 0.45 | 67 | 1003.6 |
| 20260506163117 | 66 | 101 | 0.0 | 0.0 | 0.00 | 0.45 | 0.45 | 66 | 1003.6 |
| 20260506161600 | 64 | 45 | 0.0 | 3.5 | 0.00 | 0.45 | 0.45 | 68 | 1003.4 |
| 20260506160131 | 62 | 72 | 0.9 | 4.3 | 0.00 | 0.45 | 0.45 | 72 | 1003.4 |
| 20260506154559 | 62 | 5 | 1.7 | 7.0 | 0.02 | 0.45 | 0.45 | 71 | 1003.7 |
| 20260506153135 | 63 | 346 | 3.5 | 7.8 | 0.09 | 0.45 | 0.45 | 70 | 1003.8 |
| 20260506151558 | 62 | 360 | 5.2 | 8.7 | 0.11 | 0.45 | 0.45 | 76 | 1004.1 |
| 20260506150128 | 60 | 16 | 2.6 | 7.0 | 0.13 | 0.45 | 0.45 | 80 | 1004.0 |
| 20260506144601 | 61 | 5 | 2.6 | 5.2 | 0.11 | 0.43 | 0.43 | 79 | 1004.3 |
| 20260506143136 | 61 | 31 | 0.9 | 5.2 | 0.06 | 0.35 | 0.35 | 79 | 1004.1 |
| 20260506141558 | 62 | 355 | 2.6 | 5.2 | 0.05 | 0.34 | 0.34 | 77 | 1004.1 |
| 20260506140127 | 62 | 77 | 0.9 | 2.6 | 0.04 | 0.32 | 0.32 | 74 | 1004.4 |
| 20260506134618 | 62 | 79 | 0.0 | 4.3 | 0.04 | 0.31 | 0.31 | 75 | 1004.4 |
| 20260506133131 | 62 | 97 | 4.3 | 6.1 | 0.03 | 0.30 | 0.30 | 74 | 1004.4 |
| 20260506131610 | 62 | 90 | 1.7 | 6.1 | 0.03 | 0.28 | 0.28 | 76 | 1004.4 |
| 20260506130137 | 62 | 164 | 2.6 | 6.1 | 0.03 | 0.28 | 0.28 | 73 | 1004.4 |
| 20260506124600 | 63 | 219 | 2.6 | 4.3 | 0.03 | 0.28 | 0.28 | 72 | 1004.4 |
| 20260506123126 | 63 | 119 | 2.6 | 5.2 | 0.03 | 0.27 | 0.27 | 73 | 1004.3 |
| 20260506121607 | 62 | 71 | 0.9 | 5.2 | 0.03 | 0.26 | 0.26 | 74 | 1004.4 |
| 20260506120133 | 61 | 219 | 0.9 | 4.3 | 0.04 | 0.25 | 0.25 | 80 | 1004.5 |
| 20260506114559 | 60 | 157 | 0.0 | 4.3 | 0.05 | 0.24 | 0.24 | 80 | 1004.4 |
| 20260506113135 | 59 | 207 | 0.9 | 4.3 | 0.05 | 0.24 | 0.24 | 81 | 1004.5 |
| 20260506111613 | 59 | 177 | 0.9 | 7.8 | 0.05 | 0.23 | 0.23 | 80 | 1004.4 |
| 20260506110124 | 59 | 142 | 6.1 | 8.7 | 0.03 | 0.21 | 0.21 | 80 | 1004.5 |
| 20260506104605 | 59 | 118 | 4.3 | 9.6 | 0.02 | 0.20 | 0.20 | 81 | 1004.7 |
| 20260506103131 | 59 | 94 | 2.6 | 7.0 | 0.02 | 0.20 | 0.19 | 83 | 1004.7 |
| 20260506101558 | 59 | 90 | 0.9 | 6.1 | 0.01 | 0.19 | 0.18 | 85 | 1004.7 |
| 20260506100137 | 57 | 150 | 1.7 | 6.1 | 0.02 | 0.19 | 0.18 | 88 | 1004.7 |
| 20260506094600 | 55 | 216 | 1.7 | 4.3 | 0.01 | 0.20 | 0.17 | 92 | 1004.9 |
| 20260506093127 | 54 | 154 | 0.9 | 4.3 | 0.02 | 0.20 | 0.17 | 93 | 1005.1 |
| 20260506091600 | 53 | 49 | 0.0 | 2.6 | 0.02 | 0.20 | 0.17 | 94 | 1005.2 |
| 20260506090131 | 52 | 24 | 0.0 | 1.7 | 0.02 | 0.19 | 0.17 | 94 | 1005.3 |
| 20260506084605 | 52 | 24 | 0.9 | 4.3 | 0.02 | 0.20 | 0.17 | 93 | 1005.4 |
| 20260506083126 | 51 | 32 | 0.9 | 2.6 | 0.02 | 0.20 | 0.16 | 93 | 1005.5 |
| 20260506081559 | 51 | 32 | 0.9 | 3.5 | 0.02 | 0.19 | 0.15 | 92 | 1005.5 |
| 20260506073144 | 52 | 275 | 0.9 | 4.3 | 0.02 | 0.20 | 0.13 | 92 | 1005.4 |
| 20260506071559 | 51 | 229 | 0.0 | 3.5 | 0.02 | 0.20 | 0.13 | 94 | 1005.4 |
| 20260506070139 | 51 | 325 | 2.6 | 8.7 | 0.02 | 0.20 | 0.13 | 90 | 1005.4 |
| 20260506061559 | 51 | 15 | 2.6 | 5.2 | 0.02 | 0.22 | 0.11 | 95 | 1005.8 |
| 20260506060130 | 52 | 275 | 0.0 | 1.7 | 0.02 | 0.21 | 0.10 | 97 | 1005.9 |